Regional Weather Roundup
Issued by NWS Wilmington, NC

Home | Current Version | Previous Version | Text Only | Print | Product List | Glossary On
Versions: 1 2 3 4 5 6 7 8 9 10 11 12 13 14 15 16 17 18 19 20 21 22 23 24 25 26 27
000
ASUS42 KILM 290613
RWRILM
RWRILM
REGIONAL HOURLY WEATHER ROUNDUP
NATIONAL WEATHER SERVICE WILMINGTON NC
200 AM EDT SUN MAY 29 2016

NOTE: "FAIR" INDICATES FEW OR NO CLOUDS BELOW 12,000 FEET WITH NO
SIGNIFICANT WEATHER AND/OR OBSTRUCTIONS TO VISIBILITY.

...............WFO WILMINGTON COUNTY WARNING AREA...............

......COASTAL NC AND SC COUNTIES......

CITY           SKY/WX    TMP DP  RH WIND       PRES   REMARKS
WILMINGTON     PTCLDY    72  70  93 NE6       30.05F
N MYRTLE BEACH CLOUDY    73  71  93 NE9       30.02F
MYRTLE BEACH   CLOUDY    73  64  73 NE10      30.03F

......INLAND NC AND SC COUNTIES.......

CITY           SKY/WX    TMP DP  RH WIND       PRES   REMARKS
LUMBERTON      CLOUDY    72  68  87 NE8       30.06F
ELIZABETHTOWN  MOCLDY    71  70  99 CALM      30.06F
WHITEVILLE     CLOUDY    72  70  94 NE5       30.05F
FLORENCE       CLOUDY    72  69  90 N8        30.05F
DARLINGTON     CLOUDY    71  69  93 N5        30.08F
KINGSTREE      CLOUDY    70  68  94 N6        30.03F
HARTSVILLE     CLOUDY    70  66  88 N6        30.07F
BENNETTSVILLE  MOCLDY    73  72  94 CALM      30.08S
CONWAY         LGT RAIN  70  70 100 NE8       30.03F
GEORGETOWN     DRIZZLE   72  70  94 NE8       30.00F
MARION         CLOUDY    70  68  94 NE6       30.06F

....................REST OF NORTH CAROLINA......................

.........EASTERN NC.........

CITY           SKY/WX    TMP DP  RH WIND       PRES   REMARKS
CAPE HATTERAS  MOCLDY    75  73  93 SE10      30.11F
JACKSONVILLE   CLOUDY    72  71  97 NE7       30.08F
MOREHEAD CITY  MOCLDY    76  72  87 E8        30.08F
KENANSVILLE    CLOUDY    70  68  94 CALM      30.10F
NEW BERN       MOCLDY    73  70  90 NE6       30.10F
ELIZABETH CITY PTCLDY    70  69  97 E3        30.14F

.........CENTRAL NC.........

CITY           SKY/WX    TMP DP  RH WIND       PRES   REMARKS
RALEIGH DURHAM CLOUDY    73  65  75 E6        30.12F
ROCKY MOUNT    CLOUDY    66  64  93 NE5       30.12F
ROANOKE RAPIDS NOT AVBL
FAYETTEVILLE   CLOUDY    71  67  87 NE6       30.07F
HOFFMAN        CLOUDY    73  66  79 NE5       30.08F

.........WESTERN NC.........

CITY           SKY/WX    TMP DP  RH WIND       PRES   REMARKS
CHARLOTTE      CLOUDY    70  62  76 NW3       30.12F
GREENSBORO     CLOUDY    73  58  59 CALM      30.12F
HICKORY        NOT AVBL
BOONE          NOT AVBL
ASHEVILLE      NOT AVBL

.....................REST OF SOUTH CAROLINA.....................

.........EASTERN SC.........

CITY           SKY/WX    TMP DP  RH WIND       PRES   REMARKS
CHARLESTON     LGT RAIN  71  69  93 NE16      29.96F
BEAUFORT MCAS  RAIN      68  67  96 NW13      29.97F FOG
HILTON HEAD    DRIZZLE   70  70 100 NW10G16   29.98F

.........CENTRAL SC.........

CITY           SKY/WX    TMP DP  RH WIND       PRES   REMARKS
COLUMBIA       LGT RAIN  71  67  87 NW6       30.06F
ORANGEBURG     LGT RAIN  69  66  90 N8        30.03F FOG
SUMTER SHAW    DRIZZLE   70  68  94 N9        30.03F

.........WESTERN SC.........

CITY           SKY/WX    TMP DP  RH WIND       PRES   REMARKS
GREENVILLE     NOT AVBL
ROCK HILL      LGT RAIN  70  67  90 CALM      30.12F
ANDERSON       CLOUDY    71  65  81 E6        30.12S
CLEMSON        NOT AVBL
GREENWOOD      LGT RAIN  68  66  93 CALM      30.13S FOG


...................COASTAL AND OFFSHORE REPORTS..................

................LOCAL PIERS AND NC RESERVE................


STATION/POSITION TIME  SKY/WX   TEMP    WIND        PRES    VSBY
                                AIR SEA DIR/SP/G
                 (UTC)          (F)     (DEG/KT/KT) (MB)    (MI)
JOHNY MRCER PIER 0500            74 78   80/ 15/ 16 1017.2F
NC RESRV MASNBRO NOT AVBL
OCEAN CREST PIER NOT AVBL
SPRINGMAID  PIER 0500            74 76   20/ 16/ 17 1016.4F


................COASTAL AND OFFSHORE BUOYS................


STATION/POSITION TIME  SKY/WX   TEMP    WIND        PRES    VSBY
                                AIR SEA DIR/SP/G
                 (UTC)          (F)     (DEG/KT/KT) (MB)    (MI)
DIMNDSHOAL 41025 0550            78 78  140/ 14/ 16 1019.3F
WVE H/P(F/S)=  4/ 8 SWL H/P/D(F/S/D)=  3/140/ 8

CAPE LOOKOUT     0600            74     100/ 13/ 14 1018.3F
ONSLOW BAY 41036 NOT AVBL
ONSLOW BAY 41064 0508            76 75  110/ 10/ 14 1018.4F
ONSLOW BAY 41159 0525               75                N/A
WVE H/P(F/S)=  5/ 8

5SE WRITBC 41038 0508            74 74   90/ 12/ 16 1018.3F
MASNBO INL 41110 0506               74                N/A
WVE H/P(F/S)=  4/ 7

WILM HARBR 41108 0526               74                N/A
WVE H/P(F/S)=  4/ 7

27SE WRITB 41037 0508            76 75   80/ 12/ 16 1017.2F
FRYING PAN 41013 0500            78 77  110/ 21/ 27 1016.0F
SUNST NRSH 41024 0508            75 75   60/ 14/ 17 1016.6F
CAPRS NRSH 41029 0508            74 75   50/ 19/ 25 1015.1F
EDISTO     41004 0550            77 78   90/ 12/ 14 1013.3F
WVE H/P(F/S)=  8/ 8 SWL H/P/D(F/S/D)=  7/ 8



..........OFFSHORE BUOYS BEYOND 100 NM OFFSHORE...........
.....IN A TRIANGLE---HAT TO BERMUDA TO BAHAMAS TO HAT.....


STATION/POSITION TIME  SKY/WX   TEMP    WIND        PRES    VSBY
                                AIR SEA DIR/SP/G
                 (UTC)          (F)     (DEG/KT/KT) (MB)    (MI)
150E HAT   41001 NOT AVBL
W BERMUDA  41048 0450            76 76  140/ 14/ 16 1022.3
WVE H/P(F/S)=  4/ 7 SWL H/P/D(F/S/D)=  3/130/ 7

ATLANTIC S 41049 0550            77 78   80/ 12/ 14 1022.1F
WVE H/P(F/S)=  4/ 8 SWL H/P/D(F/S/D)=  3/100/ 8

E BAHAMAS  41046 0500            75 81  270/ 17/ 23 1019.0F
NE BAHAMAS 41047 0500            78 80  140/ 14/ 16 1019.1F
120E CANVRL41010 0520            78 79  180/ 10/ 12 1016.9S

END




USA.gov is the U.S. government's official web portal to all federal, state and local government web resources and services.